Back to catalog

OPS 4682 DEB

AlivePO
NORAD 18964·DEBRIS·🇺🇸 United States

Launched Apr 3, 1965 from Vandenberg Space Force Base

Loading…

Next Passes (next 24 hours)

TLE

FreshSource: Space-Track

Epoch: Sep 14, 2026, 14:08 UTC

1 18964U 65027AM  26257.58928860  .00001067  00000-0  36240-2 0  9997
2 18964  90.2480   1.8928 0033339 223.2489 151.6964 12.97862789867060

Track OPS 4682 DEB in real time with AllMySat

Download on the App Store